Location: Rio Negrinho
(26.2394°S, 49.4999°W)
Time: 19:34:21
(UTC+00:00)

Envisat - Pass Details

Date: 26 July 2021
Orbit: 764 x 766 km, 98.2° (Epoch: 17 September)

Event Time Altitude Azimuth Distance (km) Brightness Sun altitude
Rises 07:07:23 0° 41° (NE) 3,218 6.7 -38.6°
Reaches altitude 10° 07:10:00 10° 53° (NE) 2,300 6.0 -38.0°
Enters shadow 07:13:51 26° 102° (ESE) 1,479 4.9 -37.1°
